Dewpoint
58 58 58 58 59 59 59 59 59 59 59 60 60 60 60 60 59 60 60 60 60 60 60 60 61 61 61 61 62 60 58 39 39 38 37 34 48 58 62 65 63 64 59 43 40 34 33 31 30 31 38 34 35 33 37 40 41 36 28 25 20 25 24 28 23 24 23 21 20 20 22 20 19 20 21 22 21 22 23 26 27 26 27 33 34 39 40 41
57 57 57 58 58 58 58 58 59 59 59 59 59 59 60 60 60 59 60 60 60 60 60 61 60 61 61 61 61 59 51 42 39 39 33 47 62 65 64 65 65 63 52 43 42 35 31 30 32 34 34 30 40 33 37 35 39 34 30 22 20 26 24 31 28 28 19 21 20 20 22 20 20 21 20 19 19 20 20 21 23 25 25 32 37 39 40 39
57 57 57 57 57 58 58 58 58 59 58 58 59 59 59 59 59 59 59 59 60 60 60 60 60 60 61 61 60 57 48 41 38 38 39 63 63 64 65 66 65 59 39 42 44 33 28 28 30 32 35 31 34 33 36 34 38 36 30 26 27 26 25 29 28 25 21 21 22 19 19 20 20 21 22 20 18 20 19 19 20 22 23 25 35 38 39 38
57 57 57 57 57 58 58 58 58 58 58 58 59 59 59 59 59 59 59 59 59 60 60 60 60 61 61 61 61 54 44 27 18 30 36 54 64 67 66 66 64 58 44 43 41 32 30 30 30 31 33 30 32 39 35 36 34 35 30 28 28 29 27 25 28 28 27 25 21 19 20 19 19 20 20 19 18 18 18 19 18 19 21 23 35 37 38 38
57 57 57 57 57 58 57 58 58 58 58 58 58 58 58 58 58 59 59 59 59 59 60 60 60 61 61 61 59 46 31 5 18 28 35 63 65 65 66 65 63 51 42 37 28 26 26 26 28 31 32 27 30 34 34 35 34 34 32 31 30 29 26 25 24 26 23 22 20 20 19 19 19 20 20 19 17 17 17 18 20 19 19 21 34 36 38 37
57 56 56 56 57 57 58 58 57 58 58 58 58 58 58 58 58 59 58 59 59 59 60 60 60 60 61 58 50 44 21 11 18 38 60 65 65 66 66 65 62 50 36 32 30 26 25 26 26 27 26 23 25 24 24 34 33 28 29 30 31 29 26 26 25 24 23 22 20 20 20 19 19 18 19 19 18 18 19 18 19 20 20 20 31 36 37 37
57 57 56 56 56 57 57 58 58 58 58 58 57 58 57 58 58 58 58 58 59 59 59 60 60 60 60 57 45 29 21 19 34 42 61 65 65 65 66 63 56 47 38 32 27 26 26 27 25 27 26 26 24 24 24 29 32 30 27 27 27 29 28 28 27 27 26 23 23 21 21 19 19 18 19 18 19 19 19 19 20 20 21 30 32 35 36 36
58 58 57 57 56 56 57 57 58 58 58 58 58 58 58 58 58 58 58 58 58 59 59 59 59 60 57 46 40 36 33 25 26 47 61 62 60 61 56 49 47 43 40 34 26 24 26 24 23 28 23 21 21 24 26 25 32 30 29 29 28 28 27 27 27 25 23 22 22 22 19 18 19 18 19 18 19 19 19 19 19 20 22 31 29 34 35 36
58 57 57 57 57 57 56 57 58 58 58 58 58 58 58 58 58 58 58 58 58 58 59 59 59 60 59 41 36 30 26 39 36 41 56 55 52 48 42 37 45 40 38 33 27 26 25 23 25 25 21 23 24 23 24 23 21 29 27 28 26 24 23 23 20 20 19 19 20 19 19 19 19 21 18 19 19 19 20 19 19 20 22 25 28 31 34 35
58 57 57 57 57 56 56 56 57 57 57 58 58 58 58 58 58 58 58 58 58 58 58 59 59 59 45 37 33 23 28 37 45 47 53 51 48 45 38 40 43 35 28 29 26 26 23 25 25 29 29 24 26 23 25 23 21 27 28 27 25 23 20 20 19 20 19 19 20 19 19 19 20 19 16 17 18 19 18 19 20 20 21 21 25 29 32 33
57 57 57 57 57 56 56 56 56 57 57 58 58 58 59 58 58 58 58 58 58 58 58 58 59 54 42 33 26 20 33 41 42 48 50 45 43 39 39 41 41 36 24 30 26 26 27 27 31 32 30 22 24 23 24 23 24 21 20 20 20 20 20 20 20 20 20 19 20 19 19 19 19 21 17 16 19 20 18 18 19 21 20 20 22 25 31 32
58 57 57 57 56 56 56 56 56 57 57 57 58 58 58 58 58 58 58 58 57 58 58 58 59 54 42 32 26 24 38 40 44 47 46 40 39 40 41 38 38 39 26 23 30 37 33 32 34 24 17 24 19 21 20 24 21 20 20 18 19 19 17 17 17 17 20 18 20 19 18 17 20 17 17 17 18 19 18 18 18 19 19 21 22 22 25 30
58 57 57 56 56 56 56 56 56 56 57 57 57 58 58 58 58 58 57 57 57 58 58 59 55 51 38 26 29 38 41 41 41 43 43 41 40 41 39 39 38 35 31 23 30 38 39 36 33 26 27 25 22 19 22 23 22 21 20 19 17 17 15 15 18 18 18 18 19 15 9 11 10 13 16 17 18 19 19 19 18 20 20 19 21 21 22 23
58 58 57 56 56 56 56 56 56 57 57 57 57 57 58 58 58 58 57 57 58 58 58 59 52 47 30 24 28 40 42 40 38 40 41 44 35 38 43 43 40 37 38 35 35 41 39 36 31 28 31 25 23 28 22 22 22 18 19 18 18 16 15 16 17 18 16 19 19 15 12 10 10 11 13 16 18 18 18 17 17 18 19 19 21 21 22 22
59 58 57 56 56 56 56 56 57 57 57 57 57 57 57 58 58 58 57 57 58 58 59 56 51 34 28 26 35 41 54 38 36 39 40 37 35 34 37 41 37 35 33 36 37 40 39 34 29 26 24 24 25 21 19 21 21 22 15 16 21 15 15 15 18 17 15 17 20 15 15 13 12 11 12 18 19 18 17 17 16 17 17 17 18 18 21 22
58 57 56 56 56 56 56 56 57 57 57 57 57 57 57 57 57 58 57 57 58 57 56 44 46 33 21 17 29 47 38 36 35 39 42 40 37 34 36 39 35 31 31 29 34 31 29 28 24 23 22 22 20 23 22 19 19 23 15 16 15 20 18 16 15 18 17 16 19 15 11 15 14 16 16 18 18 17 16 16 16 16 16 16 16 16 17 19
58 57 57 57 57 56 56 56 56 56 57 57 57 57 57 57 58 58 58 58 56 57 50 39 47 41 20 24 35 27 29 37 41 40 41 40 37 37 32 33 30 29 32 30 31 31 26 22 26 23 25 22 21 23 16 18 16 17 20 17 21 16 15 13 16 13 22 17 15 17 15 13 11 11 12 15 18 17 16 16 16 16 16 16 17 18 18 19
58 58 58 58 57 56 56 56 56 56 57 57 57 57 55 56 59 55 53 54 55 54 51 50 40 29 27 31 22 20 41 37 40 39 38 37 38 32 29 29 29 28 29 25 27 21 25 20 25 21 25 23 20 19 19 13 14 16 15 18 16 18 17 14 14 11 16 18 16 16 16 16 15 16 16 17 17 17 17 16 16 16 17 18 19 19 18 19
59 58 58 58 57 56 56 56 56 57 57 57 57 55 55 55 46 48 50 47 28 26 20 25 22 15 12 20 27 30 43 43 40 38 36 39 38 33 33 30 29 24 25 22 21 21 27 29 29 22 20 18 19 18 16 16 14 12 14 12 15 13 11 14 16 17 16 14 13 16 14 13 14 15 16 17 17 16 16 17 17 17 17 18 18 19 19 20
59 58 58 57 57 56 56 56 57 57 57 56 50 47 39 35 30 36 35 41 39 22 21 20 30 25 27 24 29 36 44 41 36 37 38 40 35 32 29 28 32 27 22 23 27 24 27 23 22 21 18 17 18 19 17 16 15 15 18 17 12 12 12 12 12 12 16 13 12 12 12 13 13 14 15 15 15 16 16 16 16 17 18 18 19 19 20 20
59 58 57 57 56 56 56 56 57 57 57 52 46 35 24 30 22 19 33 34 38 40 38 34 32 28 18 32 38 38 33 33 36 37 38 41 33 30 30 26 25 26 24 26 27 28 26 21 22 20 17 17 18 19 19 18 18 17 19 18 15 19 14 14 13 14 17 14 15 15 15 15 15 15 16 16 16 16 16 16 17 17 18 19 19 19 19 19
59 58 57 57 57 57 57 57 57 57 56 44 43 38 38 39 37 38 27 24 29 33 33 35 35 33 33 32 35 38 32 28 29 37 41 37 31 28 28 26 24 23 28 27 25 24 21 20 20 21 19 19 18 18 19 19 19 20 18 18 19 18 19 17 17 18 18 18 16 16 16 16 16 17 17 17 17 17 17 17 17 17 18 19 19 19 19 19
58 58 58 58 57 57 57 57 57 56 47 44 40 40 39 40 41 41 38 31 33 36 32 31 28 31 31 32 31 33 28 26 23 36 38 37 31 30 26 26 24 25 27 24 22 23 22 24 21 21 21 20 20 18 19 20 21 19 19 18 17 18 16 14 18 19 17 17 17 17 16 16 17 17 17 17 17 17 19 19 20 21 19 19 18 18 18 19
59 59 59 58 58 58 58 57 57 50 46 42 41 40 41 42 43 44 39 34 31 32 33 32 27 27 28 26 33 31 28 26 25 24 37 32 29 31 27 26 24 24 22 23 21 21 19 21 23 22 23 20 19 19 19 18 17 22 20 19 18 18 17 16 14 19 19 19 20 18 18 17 18 17 17 17 18 18 18 18 18 20 23 22 25 25 24 21
58 58 58 58 58 58 57 57 48 46 45 43 42 42 42 42 44 42 36 30 25 30 38 33 32 31 26 36 36 30 29 29 25 28 36 31 24 24 23 25 24 23 23 23 22 22 21 21 26 22 24 21 22 19 21 22 17 18 23 20 18 17 16 17 19 19 19 18 20 20 15 15 18 18 17 17 17 16 17 17 17 18 18 19 20 20 22 26
58 58 58 58 58 58 58 50 45 46 46 44 43 43 42 42 42 42 30 26 25 28 29 28 31 27 31 24 33 31 20 20 28 31 34 31 33 24 22 22 23 21 22 23 21 23 21 22 24 23 24 25 24 21 23 22 18 17 18 22 20 18 20 21 21 20 18 16 20 21 15 15 17 17 18 18 17 17 16 18 17 18 19 19 21 23 23 23
59 58 58 58 58 58 50 45 47 47 46 44 45 44 42 43 42 41 28 22 19 27 27 33 30 28 30 28 29 24 18 25 31 33 32 36 27 31 20 20 20 20 22 22 19 18 22 21 22 24 23 24 23 22 23 22 20 18 24 24 23 22 22 22 22 21 19 23 24 20 19 17 17 17 18 18 16 16 16 17 18 19 19 20 22 23 23 24
58 58 58 58 58 56 50 49 49 48 48 45 46 44 43 42 40 39 24 16 13 29 27 26 30 32 32 31 31 17 21 23 24 30 31 32 31 27 21 19 20 20 19 21 15 22 20 21 22 22 23 23 21 21 22 25 21 21 25 25 23 23 23 22 21 21 23 19 20 21 22 18 18 18 18 19 17 17 17 17 18 18 19 20 21 22 22 23
58 58 58 58 58 58 53 51 49 48 47 47 46 46 45 43 36 24 20 17 21 27 32 26 34 29 29 28 24 22 22 23 15 22 32 32 33 26 23 23 19 19 20 19 16 19 17 22 24 24 23 21 23 22 26 26 21 24 27 27 26 25 25 24 22 21 20 19 17 20 21 13 15 20 18 19 18 18 19 18 18 19 20 21 22 22 22 22
58 58 58 58 57 55 53 52 51 50 49 48 47 45 44 40 26 24 20 18 25 17 28 29 29 27 26 24 23 25 21 22 26 27 28 29 29 28 25 24 21 21 23 22 23 23 20 28 29 23 21 20 23 25 26 26 23 27 27 24 25 24 23 22 21 21 18 15 18 20 21 17 15 18 17 18 20 18 18 18 18 20 21 21 21 21 23 23
58 58 58 57 55 54 53 51 53 49 48 47 46 44 41 36 30 24 27 30 25 27 27 27 25 28 24 23 23 25 24 23 23 27 25 26 26 26 25 22 25 24 22 20 23 24 23 24 22 27 29 26 25 24 26 27 27 25 23 22 22 21 18 17 14 18 12 15 18 19 21 19 15 16 16 17 18 16 18 18 17 18 18 20 21 22 23 22
57 58 58 57 57 55 54 53 53 50 49 50 51 48 42 36 32 30 30 32 27 28 26 26 26 27 25 26 25 25 23 23 23 25 23 24 25 24 23 20 22 16 20 17 19 23 21 23 23 27 32 23 24 22 23 26 26 25 23 21 15 16 15 8 10 9 10 15 15 19 21 17 16 16 15 17 16 15 17 18 18 19 19 19 20 20 23 24
54 55 57 57 55 55 55 52 52 51 51 51 50 48 39 34 30 34 32 28 29 28 27 28 27 26 27 26 25 27 27 24 24 24 25 24 25 26 27 22 26 21 18 22 19 20 22 23 23 24 24 28 26 18 22 19 24 24 22 23 18 12 9 7 6 5 11 16 17 17 20 16 16 16 18 16 17 17 17 18 20 20 18 18 19 21 21 23
54 55 55 56 57 56 55 53 52 52 51 51 47 43 37 31 32 38 33 31 32 31 29 28 27 28 27 25 29 29 27 29 24 23 24 24 23 22 24 25 24 23 23 21 17 19 17 20 23 22 21 27 24 20 21 20 23 23 24 22 21 18 13 9 11 15 17 20 15 17 13 17 12 17 20 17 18 22 21 20 20 21 21 21 22 22 22 21
54 55 56 56 56 57 54 53 52 52 51 49 44 38 32 32 33 33 32 31 32 32 32 30 30 29 29 27 29 30 28 30 28 26 26 25 23 24 23 22 25 25 25 20 24 19 19 19 24 25 27 27 25 26 26 24 23 25 26 25 19 20 27 22 21 18 18 15 13 11 18 17 16 21 21 22 21 21 21 21 22 21 22 23 23 23 23 23
54 55 56 54 54 55 55 53 52 53 51 46 39 34 34 35 32 33 35 38 35 33 32 34 32 30 29 27 29 28 31 28 27 26 26 26 26 24 25 24 25 23 21 20 24 18 21 18 27 25 27 26 24 26 25 26 17 23 23 21 22 26 25 23 24 24 18 14 19 18 17 19 21 18 18 19 19 19 19 19 19 19 20 22 22 23 23 23
52 54 52 54 54 55 55 53 52 52 50 46 39 35 38 35 38 37 42 37 36 32 31 33 34 33 30 29 28 28 29 27 28 26 24 26 23 26 26 27 28 25 22 22 24 26 23 23 29 24 24 26 25 26 27 27 25 22 20 23 25 27 27 22 18 17 17 18 19 20 20 18 17 19 16 17 17 15 17 17 16 18 20 19 22 23 24 23
51 53 53 53 54 55 55 52 52 51 48 43 37 39 38 37 40 39 37 36 35 37 32 32 35 35 34 33 34 29 31 29 29 26 26 26 26 29 28 26 28 25 23 24 22 29 30 22 23 27 27 28 29 26 25 26 26 22 24 27 21 18 17 19 16 15 16 16 17 17 16 18 18 18 19 19 19 18 16 16 14 14 17 19 21 21 22 22
51 50 45 49 54 55 53 53 52 49 44 39 38 38 40 40 39 38 38 38 38 37 36 37 36 37 35 33 34 33 32 31 31 27 27 30 26 30 27 30 28 28 27 24 23 25 29 24 25 31 29 28 25 27 23 24 26 27 25 23 26 22 20 18 21 19 18 18 19 20 20 18 22 19 19 19 18 19 18 17 14 16 18 19 21 23 23 23
47 45 42 50 54 54 53 52 49 46 43 36 38 39 39 37 38 39 39 38 37 37 37 37 37 36 36 35 34 34 34 33 31 33 34 36 33 36 31 32 31 32 32 26 30 32 24 28 23 30 30 29 25 25 25 25 23 23 23 21 24 25 26 24 21 22 19 19 19 19 19 22 24 22 21 21 17 17 16 15 20 21 22 22 23 24 24 24
48 44 44 52 54 53 52 50 44 40 40 42 42 40 39 38 39 39 39 39 38 40 38 36 37 37 37 35 36 36 34 36 36 36 36 37 36 32 35 33 32 32 35 31 28 29 27 28 27 30 30 29 29 27 27 27 27 26 24 22 22 22 22 20 20 25 23 22 21 21 20 25 29 25 21 20 16 17 16 18 21 22 23 23 25 24 24 25
44 39 43 52 53 53 49 42 41 42 39 39 39 41 39 42 38 38 38 39 38 37 38 35 36 36 35 36 37 34 31 31 33 33 33 35 36 35 34 35 39 39 38 30 31 34 34 31 31 28 29 30 32 33 30 31 29 28 26 26 28 24 22 22 20 23 27 25 25 24 22 23 25 27 26 25 21 15 17 20 20 23 24 24 25 25 25 24
42 40 47 50 53 52 46 40 42 40 39 40 42 41 40 39 38 37 38 38 38 39 38 36 34 34 34 35 34 34 35 34 33 34 32 33 36 36 38 35 36 36 36 35 36 35 36 32 29 31 34 35 36 37 37 35 32 29 28 28 27 24 24 24 24 23 23 24 24 24 24 27 37 34 29 28 27 26 25 24 24 25 25 26 25 25 24 23
37 38 41 49 52 50 44 36 37 38 40 41 40 40 40 40 39 38 38 38 38 37 38 36 34 35 36 35 35 34 35 32 35 34 34 35 34 37 38 37 36 35 36 35 31 38 31 32 32 29 28 28 31 32 33 29 29 31 30 30 28 27 27 27 27 30 24 25 26 24 21 24 33 35 30 28 26 25 25 25 26 26 26 26 25 25 25 24
39 40 42 44 49 47 40 43 40 38 38 39 40 39 40 39 39 40 39 38 39 38 36 36 37 35 35 36 35 36 36 36 33 35 35 33 35 34 36 37 36 35 35 36 36 37 32 31 31 26 24 22 20 19 20 27 28 28 28 30 30 28 27 26 24 25 23 26 27 25 24 28 33 30 28 27 27 26 26 27 27 27 26 27 27 26 26 26
33 27 31 41 45 45 44 45 42 40 38 38 37 38 39 38 39 39 40 39 40 39 40 38 36 36 35 35 34 35 35 37 36 31 32 30 31 31 32 33 36 36 37 39 37 36 29 31 32 31 29 26 26 26 28 29 26 25 24 27 29 29 29 28 27 26 25 27 27 27 27 27 28 29 28 28 27 27 27 27 26 26 27 28 28 29 28 27
37 32 32 28 41 41 40 43 41 41 37 40 35 37 36 37 38 38 40 36 39 40 38 38 36 35 34 35 34 34 35 34 35 35 34 34 32 32 32 32 34 35 37 36 37 30 30 31 32 32 32 32 31 31 31 32 30 29 28 27 28 28 28 28 27 25 27 26 23 27 28 27 27 28 28 28 28 28 28 27 27 28 29 30 29 29 30 28
29 29 35 37 34 32 36 35 40 39 41 40 37 38 36 35 34 34 35 38 37 37 35 34 38 38 37 35 34 33 33 33 33 33 32 30 30 30 31 32 32 33 33 32 33 35 31 31 32 32 31 32 32 32 33 32 32 32 32 32 31 30 29 27 27 28 27 26 24 26 27 27 26 27 28 28 28 28 28 29 30 30 29 29 29 28 28 28
31 31 32 35 32 33 33 33 33 33 34 37 35 36 35 34 33 34 33 32 34 34 37 33 34 33 33 35 34 32 31 30 30 29 29 28 27 29 28 29 33 31 30 30 31 32 32 29 31 32 31 31 32 32 32 32 32 32 32 32 32 32 31 30 30 30 29 28 29 29 29 29 29 29 30 32 30 29 29 29 29 28 27 26 24 24 25 26
26 30 28 33 33 32 31 31 32 31 30 33 33 34 35 35 34 35 36 35 32 33 37 35 30 31 32 31 32 30 31 32 31 29 31 28 26 30 27 29 30 30 29 28 30 32 33 27 31 29 28 28 31 33 33 32 32 30 31 32 32 33 33 32 32 32 33 32 31 31 30 30 35 29 30 29 28 25 26 26 23 22 23 23 21 21 22 23
32 35 35 31 27 28 28 25 28 29 29 31 30 32 33 34 34 34 33 35 35 33 34 30 30 30 30 30 31 31 31 29 30 29 29 29 24 27 26 25 31 26 26 26 32 32 29 26 30 29 25 24 28 29 30 32 31 31 30 31 30 30 30 31 31 32 32 31 30 31 30 29 23 27 27 25 25 23 22 26 20 20 20 20 21 20 20 21
30 30 35 34 25 28 26 27 25 26 23 26 30 32 31 31 28 30 30 34 32 30 28 26 27 26 27 28 27 31 30 30 30 30 31 31 29 27 28 28 27 26 27 25 26 25 27 25 24 24 22 21 25 28 28 27 25 22 22 24 26 30 31 32 33 33 33 33 31 28 25 23 24 24 22 23 24 22 21 23 20 18 18 19 20 20 20 20